Atlantic City, NJ

4:56 AM EDT on June 25, 2017 (GMT -0400)
Atlantic City International

Weather History for KACY - April, 2013

Change the Weather History Date:

Tuesday, April 2, 2013

  Actual Average Record
Temperature  
Mean Temperature 35 °F 47 °F  
Max Temperature 47 °F 57 °F 89 °F (1967)
Min Temperature 23 °F 38 °F 23 °F (1964)
Degree Days  
Heating Degree Days 30 18  
Month to date heating degree days 44 36  
Since 1 July heating degree days 4266 4333  
Cooling Degree Days 0 0  
Month to date cooling degree days 0 0  
Year to date cooling degree days 0 0  
Moisture  
Dew Point 14 °F    
Average Humidity 43    
Maximum Humidity 63    
Minimum Humidity 23    
Precipitation  
Precipitation 0.00 in 0.14 in 1.45 in (2005)
Month to date precipitation 0.01 0.28  
Year to date precipitation 12.13 10.58  
Snow  
Snow 0.00 in 0.00 in 3.20 in (1965)
Month to date snowfall 0.0 0.0  
Since 1 July snowfall 14.5 16.2  
Snow Depth 0.00 in    
Sea Level Pressure  
Sea Level Pressure 30.05 in    
Wind  
Wind Speed 11 mph (WNW)    
Max Wind Speed 28 mph    
Max Gust Speed 34 mph    
Visibility 10 miles    
Events      
T = Trace of Precipitation, MM = Missing Value Source: NWS Daily Summary

Daily Weather History Graph

Daily Weather History Graph

Search for Another Location

Airport or City:

Trip Planner

Search our weather history database for the weather conditions in past years. The results will help you decide how hot, cold, wet, or windy it might be!

Date:

Astronomy

Apr. 02, 2013 Rise Set
Actual Time 6:40 AM EDT 7:23 PM EDT
Civil Twilight 6:13 AM EDT 7:50 PM EDT
Nautical Twilight 5:41 AM EDT 8:22 PM EDT
Astronomical Twilight 5:08 AM EDT 8:55 PM EDT
Moon 1:24 AM EDT (4/2) 11:30 AM EDT (4/2)
Length of Visible Light 13h 37m
Length of Day
12h 42m
Waning Gibbous, 56% of the Moon is Illuminated
Apr 2
Waning Gibbous
Apr 3
Last Quarter
Apr 10
New
Apr 18
First Quarter
Apr 25
Full

Hourly Weather History & Observations

Time (EDT) Temp. Windchill Dew Point Humidity Pressure Visibility Wind Dir Wind Speed Gust Speed Precip Events Conditions
12:54 AM 37.0 °F 31.0 °F 15.1 °F 41% 29.96 in 10.0 mi North 8.1 mph - N/A   Clear
1:54 AM 33.1 °F 26.9 °F 16.0 °F 50% 29.99 in 10.0 mi North 6.9 mph - N/A   Clear
2:54 AM 30.0 °F 23.2 °F 17.1 °F 59% 29.98 in 10.0 mi NNW 6.9 mph - N/A   Clear
3:54 AM 30.9 °F - 16.0 °F 54% 29.99 in 10.0 mi Calm Calm - N/A   Clear
4:54 AM 30.0 °F - 17.1 °F 59% 30.00 in 10.0 mi Calm Calm - N/A   Clear
5:54 AM 30.0 °F 26.5 °F 17.1 °F 59% 30.01 in 10.0 mi West 3.5 mph - N/A   Clear
6:54 AM 27.0 °F 23.0 °F 16.0 °F 63% 30.04 in 10.0 mi SW 3.5 mph - N/A   Clear
7:54 AM 35.1 °F 30.1 °F 15.1 °F 44% 30.06 in 10.0 mi West 5.8 mph - N/A   Clear
8:54 AM 39.0 °F 31.4 °F 14.0 °F 36% 30.07 in 10.0 mi WNW 12.7 mph - N/A   Clear
9:54 AM 41.0 °F 32.5 °F 14.0 °F 33% 30.07 in 10.0 mi WNW 17.3 mph - N/A   Clear
10:54 AM 43.0 °F 35.7 °F 12.9 °F 30% 30.06 in 10.0 mi West 15.0 mph 29.9 mph N/A   Partly Cloudy
11:54 AM 45.0 °F 37.9 °F 14.0 °F 29% 30.06 in 10.0 mi WNW 16.1 mph - N/A   Partly Cloudy
12:54 PM 45.0 °F 37.1 °F 12.9 °F 27% 30.04 in 10.0 mi WNW 19.6 mph 28.8 mph N/A   Scattered Clouds
1:54 PM 46.0 °F 38.8 °F 12.9 °F 26% 30.03 in 10.0 mi West 18.4 mph 31.1 mph N/A   Scattered Clouds
2:54 PM 45.0 °F 37.4 °F 12.0 °F 26% 30.03 in 10.0 mi West 18.4 mph 26.5 mph N/A   Scattered Clouds
3:54 PM 46.9 °F - 12.9 °F 25% 30.01 in 10.0 mi West 13.8 mph 27.6 mph N/A   Partly Cloudy
4:54 PM 46.0 °F 38.0 °F 10.9 °F 24% 30.02 in 10.0 mi WNW 21.9 mph 28.8 mph N/A   Clear
5:54 PM 45.0 °F 38.2 °F 10.0 °F 24% 30.04 in 10.0 mi West 15.0 mph 28.8 mph N/A   Clear
6:54 PM 43.0 °F 35.1 °F 10.9 °F 27% 30.06 in 10.0 mi WNW 17.3 mph 25.3 mph N/A   Clear
7:54 PM 41.0 °F 34.7 °F 12.0 °F 31% 30.08 in 10.0 mi West 10.4 mph - N/A   Clear
8:54 PM 39.0 °F 34.8 °F 12.0 °F 33% 30.11 in 10.0 mi West 5.8 mph - N/A   Clear
9:54 PM 37.0 °F 32.4 °F 12.0 °F 36% 30.13 in 10.0 mi West 5.8 mph - N/A   Clear
10:54 PM 37.0 °F 30.4 °F 12.9 °F 37% 30.14 in 10.0 mi WNW 9.2 mph - N/A   Clear
11:54 PM 35.1 °F 28.6 °F 12.9 °F 40% 30.14 in 10.0 mi WNW 8.1 mph - N/A   Clear